Theta_e
319 320 320 320 321 324 325 325 325 326 329 336 338 340 339 343 341 340 351 353 351 344 339 347 348 348 348 348 349 349 348 348 351 352 350 350 350 351 349 349 349 349 349 348
320 320 321 321 322 322 322 323 322 325 331 333 340 338 339 341 340 337 346 353 351 343 347 344 346 346 348 348 348 349 349 348 350 350 351 352 351 351 350 349 349 348 349 348
321 323 322 322 322 323 321 322 324 325 327 334 337 331 339 342 338 338 340 350 349 347 347 343 340 343 348 348 348 349 349 349 350 350 350 351 349 350 351 348 350 349 348 349
321 321 323 322 322 321 321 322 324 326 325 326 331 332 337 341 338 340 342 348 349 344 344 344 341 341 348 348 349 350 350 350 350 351 349 349 349 351 350 349 348 349 349 349
322 322 323 324 322 321 322 323 324 326 324 326 332 333 332 336 343 344 345 343 344 345 343 344 345 345 348 349 349 349 348 349 350 350 350 350 350 349 349 349 348 347 349 349
320 321 324 323 325 322 323 324 321 321 322 325 324 332 330 345 344 345 342 344 343 342 343 347 347 347 349 349 349 349 349 348 347 351 351 351 350 350 349 349 348 346 349 350
322 325 325 324 325 323 321 321 323 326 326 328 328 336 334 341 343 343 345 343 345 344 346 346 346 347 347 346 347 349 348 347 346 346 351 352 351 349 349 349 349 348 345 349
322 327 331 326 326 325 323 321 322 328 326 330 335 340 338 342 342 343 344 344 345 348 346 345 344 345 348 341 339 337 341 348 347 344 349 351 350 350 349 349 349 347 346 347
325 330 327 328 324 323 324 325 320 321 323 334 338 337 339 342 341 341 341 335 341 345 346 347 344 344 345 346 338 338 344 347 346 341 346 344 347 350 350 349 350 349 346 346
323 329 327 329 325 328 329 325 331 325 332 336 341 345 341 344 341 341 337 336 333 338 340 344 344 343 343 342 343 343 339 344 342 344 345 342 339 348 352 350 351 350 348 348
323 325 330 328 330 331 330 330 326 324 324 332 340 342 337 341 340 340 338 337 335 339 339 340 342 344 343 343 342 341 342 343 343 342 344 339 341 345 351 352 352 350 347 348
328 325 330 330 328 325 331 331 326 326 329 327 333 335 336 339 339 338 337 336 336 337 339 342 343 344 344 344 344 340 340 340 340 341 342 338 341 347 354 354 352 351 349 347
327 324 327 326 322 325 328 327 326 321 322 328 333 328 339 338 338 338 337 337 336 349 347 343 344 344 344 344 343 342 341 339 339 341 342 343 350 354 355 355 353 352 351 347
326 318 321 322 325 324 331 330 326 323 324 324 325 327 343 340 339 338 336 335 344 350 350 349 346 342 342 343 344 343 342 344 341 340 340 344 353 356 354 354 355 354 352 352
322 327 326 325 324 329 332 330 330 329 325 328 327 327 338 340 338 337 339 347 350 350 350 349 348 346 350 348 344 343 344 346 345 346 350 349 355 355 354 355 355 353 353 353
319 326 328 328 328 331 332 330 341 336 338 338 340 342 338 336 344 346 346 349 349 348 346 344 343 345 346 349 355 354 354 352 349 345 346 354 356 356 357 356 356 355 354 353
322 322 323 327 328 329 326 332 344 349 348 341 344 338 344 349 347 346 345 346 342 339 339 341 341 342 345 348 347 349 352 354 356 353 349 351 352 355 355 354 354 354 354 353
320 322 321 325 326 331 325 339 346 348 348 345 341 344 348 343 342 341 339 340 338 335 336 336 336 340 345 346 350 350 348 349 353 353 351 348 347 349 350 354 354 355 354 354
317 322 325 327 326 326 331 336 336 347 349 345 347 349 344 342 341 340 338 335 335 333 331 334 334 335 336 341 344 346 344 341 340 341 344 345 347 344 347 344 343 348 352 355
320 319 325 325 331 333 328 336 337 339 349 342 347 346 345 341 345 340 339 337 335 333 332 333 333 333 333 333 333 334 336 335 333 332 331 331 334 341 346 343 342 339 347 351
328 328 326 329 331 330 328 337 334 338 336 340 343 343 342 342 338 337 336 335 336 334 332 331 331 330 331 333 332 331 332 331 332 331 330 330 330 331 335 340 340 344 342 339
330 330 331 331 336 340 334 338 337 334 337 335 335 336 337 334 337 338 336 329 326 329 332 332 331 330 331 332 333 332 332 331 331 331 331 330 330 330 330 332 339 346 338 333
329 328 331 329 333 329 327 334 331 324 327 326 325 326 326 325 325 324 323 324 328 328 327 327 327 327 327 327 330 333 331 332 332 333 332 332 332 331 332 332 339 343 338 334
326 324 328 329 329 328 326 325 325 325 325 324 324 325 324 325 324 324 324 324 323 324 326 326 327 327 327 328 328 329 331 333 333 333 333 333 332 331 332 333 333 341 342 335
323 323 322 326 328 327 326 326 324 325 324 325 324 325 325 324 325 324 322 321 321 323 326 328 328 329 330 331 331 332 332 332 331 331 330 330 331 332 332 334 331 334 341 337
321 324 324 324 323 323 325 325 325 325 325 325 326 326 324 324 323 322 321 324 327 328 327 326 326 326 326 328 329 329 329 328 328 328 328 328 329 332 333 333 334 330 333 341
Wind_Speed
5 4 6 8 6 5 5 4 8 12 5 4 3 2 7 6 4 5 7 7 8 11 2 7 14 20 30 30 32 41 42 37 37 32 29 24 25 22 19 19 19 18 19 19
4 6 13 4 4 6 6 5 7 6 1 4 3 4 6 4 2 5 6 6 8 6 5 2 10 16 27 36 37 38 39 37 38 34 32 28 28 24 21 21 20 19 20 22
6 8 5 1 4 4 6 5 3 5 4 5 4 4 5 5 5 7 4 4 3 7 6 7 13 20 26 35 38 40 41 40 39 36 34 25 23 21 20 21 20 20 20 22
5 6 4 3 8 6 4 5 3 5 3 2 3 3 5 2 5 4 4 4 7 8 7 11 9 15 23 27 24 22 23 22 26 36 34 32 27 23 26 24 22 19 20 21
8 7 5 4 7 7 8 2 2 3 1 2 2 5 5 4 7 3 3 4 6 12 15 14 8 8 14 22 26 24 24 29 16 29 36 34 28 27 22 23 23 22 21 22
9 4 4 8 3 4 2 5 6 4 3 4 5 4 4 2 3 6 7 5 3 3 8 7 7 8 10 18 22 18 16 20 13 24 36 33 30 28 23 21 24 24 23 22
6 5 4 5 3 3 7 7 4 5 5 5 6 3 6 3 5 7 10 8 2 10 9 6 6 8 9 13 17 22 25 23 24 9 27 26 25 25 24 23 23 25 24 26
1 7 3 3 7 7 2 7 5 3 2 4 4 3 5 5 9 11 12 7 5 6 4 6 8 10 12 12 11 9 18 18 21 12 14 18 22 25 28 26 24 23 25 25
4 5 7 3 2 6 2 1 3 6 2 2 2 5 8 4 8 8 7 6 7 8 5 6 8 10 13 13 18 16 19 23 24 23 20 21 25 22 28 25 24 23 22 24
3 2 5 5 5 5 6 4 4 4 2 1 3 4 6 6 4 9 7 8 9 5 4 5 6 8 10 11 17 22 24 20 23 22 22 21 19 25 27 25 24 23 25 23
5 5 7 3 4 0 5 3 6 5 4 4 1 6 6 6 8 8 7 8 9 8 8 2 5 9 11 10 11 13 22 23 22 21 26 23 23 28 26 26 26 24 24 22
4 5 2 3 2 3 2 2 4 5 4 0 3 5 8 8 9 3 7 9 9 9 9 6 4 10 11 12 15 12 13 17 22 26 27 28 30 31 27 28 24 24 25 25
5 3 2 8 6 5 5 3 4 5 3 5 5 6 4 4 5 4 6 9 8 8 7 5 1 4 8 14 15 13 18 23 24 27 27 29 31 30 26 26 25 24 23 25
8 4 5 6 5 2 5 5 2 5 3 4 6 5 3 6 7 2 7 7 6 5 6 7 6 2 7 14 20 23 24 23 28 32 31 34 29 24 25 24 25 26 25 23
5 3 2 5 6 3 4 4 7 4 5 5 5 8 4 7 8 6 1 4 6 8 8 6 6 6 5 9 16 23 24 25 26 28 31 32 28 24 25 26 25 24 25 26
4 2 1 2 4 3 2 6 3 4 3 2 3 1 2 3 4 5 5 5 2 6 6 5 6 7 10 15 4 6 11 15 19 24 25 24 24 25 28 27 28 26 25 25
3 6 3 4 4 5 4 3 1 4 3 1 2 3 1 5 8 5 5 5 5 5 6 7 6 9 15 14 12 13 13 14 14 21 24 23 23 23 24 24 25 26 28 28
7 5 3 3 3 1 5 3 12 11 6 6 5 6 3 5 3 5 3 4 6 3 5 5 7 14 14 13 13 15 20 24 19 9 10 18 25 21 21 26 27 27 28 28
4 6 3 4 3 4 4 2 0 4 3 5 3 4 4 4 3 4 3 4 2 1 0 3 7 9 9 9 9 11 14 15 15 17 18 20 21 24 17 19 32 36 35 29
5 4 5 3 4 6 6 2 2 6 0 4 5 4 4 2 3 3 1 2 5 5 3 5 4 2 1 1 3 5 6 9 10 12 14 15 16 18 19 17 25 31 31 30
3 3 5 3 4 5 5 3 3 3 6 4 7 6 6 2 5 2 3 5 10 12 9 6 5 6 6 5 6 6 6 10 10 12 14 15 15 14 15 15 14 17 12 24
2 2 2 2 2 3 4 2 2 5 2 5 4 5 6 5 4 5 3 3 6 6 6 5 4 5 7 8 9 11 10 11 12 13 15 16 13 13 16 13 14 7 15 5
1 4 4 4 4 4 3 3 3 3 6 4 6 4 6 6 3 3 3 4 4 3 3 4 6 9 12 12 11 12 17 14 13 14 15 16 15 15 14 14 11 4 12 21
4 2 3 3 4 4 5 5 4 2 3 2 2 3 3 2 3 4 3 5 5 7 9 9 9 12 15 17 16 17 18 16 16 17 18 17 18 16 12 13 14 7 14 17
4 3 4 1 2 2 3 2 4 4 5 4 2 2 2 1 3 5 4 4 6 7 8 8 10 12 15 14 16 15 14 13 15 17 20 22 23 22 15 10 11 17 8 20
3 5 4 5 7 5 5 2 3 5 3 2 3 2 3 1 4 4 3 1 2 3 8 12 15 16 19 18 20 20 20 21 23 26 26 26 24 23 20 14 12 19 17 15
Wind_Direction
348 37 251 246 185 217 270 260 284 287 242 104 227 49 125 150 162 209 229 214 217 204 74 194 194 208 212 208 201 200 196 204 204 206 203 204 203 205 207 212 217 218 218 221
11 252 249 222 180 219 244 266 275 277 68 121 168 230 83 75 6 344 245 224 231 272 349 327 243 231 202 205 210 203 204 205 203 206 205 207 212 210 217 219 225 225 221 228
167 244 15 255 268 200 269 213 227 240 9 27 125 27 65 12 18 329 312 227 212 227 248 259 224 232 206 197 204 206 204 205 205 206 206 208 218 217 220 220 219 222 224 235
232 280 254 274 252 147 248 198 205 283 58 275 113 262 112 150 225 262 244 233 218 205 205 238 254 246 216 205 199 195 196 199 203 208 207 208 210 211 223 225 223 218 223 227
257 285 311 279 221 163 231 101 57 348 135 34 44 89 258 117 230 227 231 202 216 225 211 208 225 240 220 185 184 187 193 197 214 221 214 213 218 222 228 229 227 223 224 221
247 251 217 221 274 184 62 63 42 57 52 19 311 124 276 283 275 298 282 272 242 210 126 151 198 194 165 161 160 173 217 210 223 236 225 218 218 224 228 225 225 221 222 221
314 258 253 194 221 13 73 59 352 355 8 229 327 33 245 273 298 249 272 259 219 132 144 154 183 175 158 170 179 195 211 179 210 265 225 224 235 243 245 229 226 222 223 224
144 333 292 169 187 178 127 138 148 230 238 271 334 329 262 229 282 271 265 266 174 140 133 191 203 191 168 161 158 213 212 192 205 240 217 225 237 246 252 239 226 224 225 228
161 278 294 184 129 116 135 54 181 105 360 52 262 283 295 232 285 280 282 268 159 100 117 239 232 210 188 184 195 198 199 194 211 223 235 236 233 243 253 237 232 230 233 232
200 346 266 322 64 25 112 149 54 16 124 258 302 275 240 258 230 276 275 355 357 23 72 217 236 213 217 186 207 219 225 230 228 238 245 257 249 245 255 239 234 233 233 234
145 104 293 46 29 251 7 17 65 112 107 157 227 267 229 208 194 234 262 344 329 339 342 276 201 230 225 231 214 231 242 243 246 249 240 244 254 247 256 245 232 233 232 229
186 163 112 203 245 323 158 79 108 113 275 13 156 271 325 166 194 327 329 310 298 328 331 313 175 204 216 243 251 270 264 258 251 254 237 237 258 262 251 243 239 234 236 233
183 28 46 343 355 353 55 348 105 97 77 202 148 261 24 125 167 233 303 303 340 323 357 50 170 230 236 247 241 253 265 258 253 252 246 252 253 249 239 234 231 232 231 230
89 83 142 175 212 231 323 333 98 130 132 195 224 261 167 202 195 197 272 301 335 19 65 26 45 282 240 237 242 250 259 255 254 256 257 259 258 242 242 239 234 234 234 231
87 123 155 211 231 233 245 299 329 196 214 175 295 197 261 206 173 208 181 58 11 63 54 45 47 48 43 233 237 244 253 265 260 254 251 253 255 249 247 242 237 237 238 237
18 195 110 276 280 8 307 326 24 38 88 67 125 300 278 113 121 88 116 126 51 51 67 33 31 47 30 30 359 263 274 273 263 261 267 262 265 259 256 256 244 237 238 239
122 134 109 257 323 351 15 357 31 85 15 219 251 245 131 78 72 73 85 100 98 66 49 59 52 49 47 36 26 27 14 349 295 255 260 287 285 273 264 263 255 244 239 239
143 115 116 210 24 354 244 128 103 96 31 353 81 94 71 91 77 41 357 120 118 86 74 66 78 67 53 50 49 42 40 45 41 23 13 11 11 356 320 293 276 264 250 242
188 128 115 154 176 277 160 222 94 126 349 336 338 103 110 116 77 6 40 47 59 108 188 122 89 82 70 51 41 36 38 37 34 29 24 23 20 10 339 343 345 327 286 258
70 73 123 137 153 208 236 226 138 122 281 284 157 134 156 102 139 257 287 2 325 305 219 186 156 147 122 78 5 1 2 5 10 7 10 17 17 8 10 335 310 325 325 284
15 19 153 160 198 281 250 293 120 191 222 185 148 161 161 193 202 219 191 244 226 233 235 270 284 305 311 292 287 304 315 327 333 336 345 357 10 4 7 2 358 13 61 34
178 114 218 92 122 243 7 341 187 197 104 152 151 175 184 222 202 208 223 353 352 346 344 346 318 322 327 297 283 291 291 306 302 309 318 331 344 354 352 355 357 154 146 122
338 179 182 170 213 260 308 105 57 84 127 158 142 164 169 176 216 253 252 248 201 202 257 273 286 294 300 295 280 267 282 287 279 288 297 310 322 335 343 345 348 190 188 165
318 144 106 77 320 15 42 52 86 111 113 130 103 97 134 183 238 237 185 207 235 253 266 280 276 278 285 291 292 284 289 292 293 290 293 298 306 312 323 336 329 323 212 206
215 11 120 24 4 42 9 131 140 104 97 95 100 118 117 188 255 234 253 275 274 290 307 317 311 301 292 296 290 294 297 299 299 301 300 299 299 294 292 295 317 306 258 220
187 190 162 209 206 160 212 231 149 133 128 93 85 23 357 20 300 274 273 342 14 27 333 321 311 301 298 290 284 286 291 297 298 298 299 297 297 292 280 276 284 296 293 252